Kenai, AK

1:45 AM AKDT on June 25, 2017 (GMT -0800)
Kenai Municipal

Weather History for PAEN - October, 2014

Change the Weather History Date:

Monday, October 6, 2014

  Actual Average Record
Temperature  
Mean Temperature 35 °F -  
Max Temperature 43 °F 47 °F 57 °F (1993)
Min Temperature 27 °F 33 °F 13 °F (1958)
Degree Days  
Heating Degree Days 30    
Moisture  
Dew Point 20 °F    
Average Humidity 55    
Maximum Humidity 81    
Minimum Humidity 34    
Precipitation  
Precipitation 0.00 in - - ()
Sea Level Pressure  
Sea Level Pressure 29.98 in    
Wind  
Wind Speed 5 mph (North)    
Max Wind Speed 16 mph    
Max Gust Speed -    
Visibility 10 miles    
Events      
Averages and records for this station are not official NWS values.
T = Trace of Precipitation, MM = Missing Value Source: NWS Daily Summary

Daily Weather History Graph

Daily Weather History Graph

Search for Another Location

Airport or City:

Trip Planner

Search our weather history database for the weather conditions in past years. The results will help you decide how hot, cold, wet, or windy it might be!

Date:

Astronomy

Oct. 06, 2014 Rise Set
Actual Time 8:23 AM AKDT 7:20 PM AKDT
Civil Twilight 7:41 AM AKDT 8:03 PM AKDT
Nautical Twilight 6:52 AM AKDT 8:52 PM AKDT
Astronomical Twilight 6:01 AM AKDT 9:42 PM AKDT
Moon 6:42 PM AKDT (10/6) 5:55 AM AKDT (10/6)
Length of Visible Light 12h 21m
Length of Day
10h 57m
Waxing Gibbous, 96% of the Moon is Illuminated
Oct 6
Waxing Gibbous
Oct 8
Full
Oct 15
Last Quarter
Oct 23
New
Oct 30
First Quarter

Hourly Weather History & Observations

Time (AKDT) Temp. Windchill Dew Point Humidity Pressure Visibility Wind Dir Wind Speed Gust Speed Precip Events Conditions
12:53 AM 36.0 °F 31.1 °F 21.0 °F 55% 29.74 in 10.0 mi East 5.8 mph - N/A   Overcast
1:53 AM 36.0 °F 31.1 °F 19.9 °F 52% 29.77 in 10.0 mi NE 5.8 mph - N/A   Overcast
2:53 AM 36.0 °F 32.1 °F 19.9 °F 52% 29.80 in 10.0 mi ENE 4.6 mph - N/A   Overcast
3:53 AM 35.1 °F - 19.9 °F 54% 29.83 in 10.0 mi Calm Calm - N/A   Overcast
4:53 AM 33.1 °F - 21.9 °F 64% 29.85 in 10.0 mi Calm Calm - N/A   Overcast
5:53 AM 32.0 °F - 24.1 °F 73% 29.88 in 10.0 mi Calm Calm - N/A   Overcast
6:53 AM 30.9 °F - 21.9 °F 69% 29.90 in 10.0 mi Calm Calm - N/A   Overcast
7:53 AM 30.0 °F - 23.0 °F 75% 29.93 in 10.0 mi Calm Calm - N/A   Mostly Cloudy
8:53 AM 30.0 °F - 23.0 °F 75% 29.95 in 10.0 mi Calm Calm - N/A   Partly Cloudy
9:53 AM 35.1 °F - 21.9 °F 59% 29.97 in 10.0 mi Calm Calm - N/A   Clear
10:53 AM 39.0 °F 31.4 °F 19.0 °F 45% 29.99 in 10.0 mi North 12.7 mph - N/A   Clear
11:53 AM 39.9 °F 31.4 °F 16.0 °F 38% 30.01 in 10.0 mi North 16.1 mph - N/A   Clear
12:53 PM 41.0 °F 33.9 °F 17.1 °F 38% 30.03 in 10.0 mi North 12.7 mph - N/A   Clear
1:53 PM 42.1 °F 35.7 °F 17.1 °F 37% 30.04 in 10.0 mi North 11.5 mph - N/A   Clear
2:53 PM 42.1 °F 36.1 °F 17.1 °F 37% 30.05 in 10.0 mi NNW 10.4 mph - N/A   Clear
3:53 PM 42.1 °F 36.6 °F 17.1 °F 37% 30.05 in 10.0 mi North 9.2 mph - N/A   Clear
4:53 PM 42.1 °F 36.1 °F 17.1 °F 37% 30.06 in 10.0 mi North 10.4 mph - N/A   Clear
5:53 PM 42.1 °F 37.7 °F 15.1 °F 34% 30.06 in 10.0 mi NW 6.9 mph - N/A   Clear
6:53 PM 39.0 °F 36.8 °F 17.1 °F 41% 30.07 in 10.0 mi NNW 3.5 mph - N/A   Clear
7:53 PM 34.0 °F - 18.0 °F 52% 30.08 in 10.0 mi Calm Calm - N/A   Clear
8:53 PM 30.0 °F - 23.0 °F 75% 30.09 in 10.0 mi Calm Calm - N/A   Clear
9:53 PM 28.0 °F - 21.0 °F 75% 30.10 in 10.0 mi Calm Calm - N/A   Clear
10:53 PM 28.9 °F - 21.0 °F 72% 30.12 in 10.0 mi Calm Calm - N/A   Clear
11:53 PM 27.0 °F 20.5 °F 21.9 °F 81% 30.12 in 10.0 mi NW 5.8 mph - N/A   Clear